TIANWANG 1A (TW-1A)
1 40928U 15051D   20011.20798778  .00002551  00000-0  62082-4 0  9992
2 40928  97.1266  42.8265 0012158  50.9772  14.2237 15.41789988240982
LAPAN A2
1 40931U 15052B   20008.73385127  .00000640  00000-0  00000+0 0  9995
2 40931   5.9917  41.4791 0013162 160.0202 200.3725 14.76621920231463
LQSAT
1 40958U 15057A   20011.12550067  .00000030  00000-0  12275-4 0  9998
2 40958  97.8755  79.4760 0016897 300.8601  59.0945 14.73103642229197
CHUBUSAT 2
1 41338U 16012B   20010.42184867 +.00000316 +00000-0 +17873-4 0  9992
2 41338 031.0032 277.2615 0013725 340.4867 019.5242 15.00229566213836
CHUBUSAT 3
1 41339U 16012C   20011.03292852  .00000286  00000-0  15482-4 0  9995
2 41339  31.0127 271.2083 0013685 353.6877   6.3583 15.00399213213926
OUFTI-1
1 41458U 16025C   20010.55199909  .00001388  00000-0  73494-4 0  9997
2 41458  98.0995 112.8957 0165362  25.1711 335.7459 15.06372095203556
E-STAR-2
1 41459U 16025D   20011.21781979  .00001502  00000-0  79814-4 0  9996
2 41459  98.0990 113.1308 0166211  24.6038 336.3014 15.05974157203624
AAUSAT 4
1 41460U 16025E   20011.25461168  .00001607  00000-0  82877-4 0  9996
2 41460  98.0955 114.9741 0156292  15.0567 345.5234 15.08077644203798
NUSAT 1
1 41557U 16033B   20011.14558321  .00001177  00000-0  46233-4 0  9996
2 41557  97.4106 102.4193 0012093 290.4727  69.5214 15.27654274201606
BEESAT 4
1 41619U 16040W   20010.64189587 +.00001283 +00000-0 +56464-4 0  9996
2 41619 097.3427 073.7763 0011785 027.4167 332.7689 15.23600826185215
PRATHAM
1 41783U 16059A   20010.87270625 +.00000056 +00000-0 +19923-4 0  9993
2 41783 098.0410 070.5958 0034894 095.5146 265.0038 14.63031096175694
ALSAT 1N
1 41789U 16059G   20011.09500514  .00000031  00000-0  14860-4 0  9995
2 41789  98.0440  73.2672 0029679  83.7431 276.7160 14.64288735175855
NAYIF 1
1 42017U 17008BX  20010.43190381 +.00001481 +00000-0 +60288-4 0  9994
2 42017 097.3809 080.1897 0006949 151.0491 209.1134 15.26046749161297
MAX VALIER SAT
1 42778U 17036P   20010.94619594 +.00000867 +00000-0 +40544-4 0  9997
2 42778 097.3286 068.7838 0011432 213.1301 146.9220 15.22343747141612
